Terug naar catalogus

STARLINK-5542

ActiefCommunicatieVLEO
NORAD 57075·PAYLOAD·🇺🇸 United States

Gelanceerd Jun 22, 2023 vanaf Vandenberg Space Force Base

Loading…

Volgende Passages (komende 24 uur)

TLE

VersSource: CelesTrak SupGP

Epoch: Sep 15, 2026, 02:36 UTC

1 57075C 23088AD  26258.10881944  .00034128  00000+0  12360-2 0  2582
2 57075  43.0030 106.0117 0001817 276.1109  95.7909 15.27565129    18

Volg STARLINK-5542 in realtime met AllMySat

Download on the App Store